Overview Statistics Trail Chart Weather Telemetry Raw packets
 

This is the latest recevied weather packets stored in our database for station/object N0KWA. If no packets are shown the sender has not sent any weather packets the latest 10 day(s).

<< 33 34 35 36 37 38 39 >>
Time Temp. Humidity Pressure Rain* Wind** Luminosity Snow
1788216378 29.44° C 91% 1017.4 hPa 0 mm - 12 W/m² -
1788216073 29.44° C 91% 1017.4 hPa 0 mm - 13 W/m² -
1788215768 29.44° C 90% 1017.6 hPa 0 mm - 15 W/m² -
1788215465 29.44° C 90% 1017.6 hPa 0 mm - 17 W/m² -
1788215160 29.44° C 91% 1017.7 hPa 0 mm - 18 W/m² -
1788214855 29.44° C 91% 1017.6 hPa 0 mm - 18 W/m² -
1788214550 29.44° C 91% 1017.7 hPa 0 mm - 18 W/m² -
1788214250 28.89° C 92% 1017.8 hPa 0 mm - 20 W/m² -
1788213950 28.89° C 91% 1017.7 hPa 0 mm - 22 W/m² -
1788213646 28.89° C 91% 1017.6 hPa 0 mm - 23 W/m² -
1788213341 28.89° C 92% 1017.7 hPa 0 mm - 26 W/m² -
1788213037 28.89° C 94% 1017.6 hPa 0 mm - 26 W/m² -
1788212735 28.89° C 94% 1017.7 hPa 0 mm - 26 W/m² -
1788212430 28.89° C 94% 1017.7 hPa 0 mm - 26 W/m² -
1788212127 28.33° C 92% 1017.7 hPa 0 mm - 29 W/m² -
1788211822 28.33° C 95% 1017.8 hPa 0 mm - 30 W/m² -
1788211518 28.33° C 95% 1018 hPa 0 mm - 45 W/m² -
1788211213 27.78° C 94% 1017.9 hPa 0 mm - 29 W/m² -
1788210908 27.78° C 95% 1018.1 hPa 0 mm - 28 W/m² -
1788210607 27.78° C 95% 1018 hPa 0 mm - 31 W/m² -
1788210302 27.78° C 95% 1017.9 hPa 0 mm - 29 W/m² -
1788209998 27.78° C 96% 1018.3 hPa 0 mm - 28 W/m² -
1788209693 27.78° C 95% 1018.2 hPa 0 mm - 28 W/m² -
1788209389 27.22° C 95% 1018.3 hPa 0 mm - 27 W/m² -
1788209083 27.22° C 94% 1018.4 hPa 0 mm - 25 W/m² -

* Rain latest hour (hover to see other rain measurements)
** Current wind speed in m/s (hover to see current wind gust speed)